Regional Weather Roundup
Issued by NWS

Home | Current Version | Previous Version | Graphics & Text | Print | Product List | Glossary On
Versions: 1 2 3 4 5 6 7 8 9 10 11 12 13 14 15 16 17 18 19 20 21 22 23 24 25 26 27 28 29 30 31 32 33 34 35 36 37 38 39 40 41 42 43 44 45 46 47 48 49 50
000
ASUS44 KMEG 211310
RWRTN
TENNESSEE HOURLY STATE WEATHER ROUNDUP
NATIONAL WEATHER SERVICE MEMPHIS TN
700 AM CST SAT JAN 21 2017

TNZ002-004-019-021-049-052-054-088>092-211400-
WEST TENNESSEE

CITY           SKY/WX    TMP DP  RH WIND       PRES   REMARKS
MEMPHIS INTL   CLOUDY    63  55  75 S13       29.65F
NWS MEMPHIS      N/A     64 N/A N/A MISG        N/A
JACKSON        MOCLDY    60  53  77 S7        29.68R
DYERSBURG      CLOUDY    63  52  67 SW7       29.66S
UNION CITY     MOCLDY    57  57 100 S5        29.65R
PARIS          MOCLDY    55  52  88 CALM      29.67S
HUNTINGDON     PTCLDY    57  54  88 SE9       29.69R
$$

TNZ008-025-027-028-033-062-065-066-211400-
NORTH MIDDLE TENNESSEE

CITY           SKY/WX    TMP DP  RH WIND       PRES   REMARKS
NASHVILLE      CLOUDY    58  54  86 S8        29.75R
PORTLAND       PTCLDY    59  55  88 S10       29.75R
CLARKSVILLE    CLOUDY    57  51  80 SE9       29.71R
SMYRNA         CLOUDY    57  54  89 SE7       29.77R
GALLATIN       CLEAR     52  52 100 CALM      29.78S
CROSSVILLE     MOCLDY    54  54 100 S5        29.83R FOG
$$

TNZ061-075-076-078-094-096-097-211400-
SOUTH MIDDLE TENNESSEE

CITY           SKY/WX    TMP DP  RH WIND       PRES   REMARKS
TULLAHOMA      CLEAR     55  54  94 CALM      29.78S
WINCHESTER     MOCLDY    59  57  94 SE7       29.78S
MCMINNVILLE    CLEAR     52  52 100 CALM      29.78S
COLUMBIA       CLEAR    N/A N/A N/A CALM      29.74R
SHELBYVILLE    PTCLDY    61  57  88 SE5       29.78R
$$

TNZ017-018-042-046-047-211400-
NORTHEAST TENNESSEE

CITY           SKY/WX    TMP DP  RH WIND       PRES   REMARKS
TRI CITIES     FOG       42  42 100 CALM      29.85F VSB 1/2
ELIZABETHTON   CLOUDY    46  45  93 NE5       29.86S
$$

TNZ012-013-036-069-073-074-211400-
CENTRAL EAST TENNESSEE

CITY           SKY/WX    TMP DP  RH WIND       PRES   REMARKS
KNOXVILLE      MOCLDY    49  47  93 NE5       29.83R
OAK RIDGE      MOCLDY    50  47  89 CALM      29.84F
GATLINBURG     CLEAR     43  43 100 CALM      29.84R
MORRISTOWN     MOCLDY    50  50 100 E3        29.84R
JACKSBORO      FOG       43  43 100 CALM      29.86R VSB 0
$$

TNZ083-085-099-211400-
SOUTHEAST TENNESSEE

CITY           SKY/WX    TMP DP  RH WIND       PRES   REMARKS
CHATTANOOGA    CLOUDY    56  54  93 CALM      29.79F FOG
$$

SKY/WX REPORTED AS FAIR MEANS FEW OR NO CLOUDS BELOW
12 THOUSAND FEET.





USA.gov is the U.S. government's official web portal to all federal, state and local government web resources and services.